NKS2504 KSNA-KLAS

Flight info

Callsign NKS2504
Flight time 0h 39m
Altitude 29000
Route FINZZ3 MISEN RNDRZ4
Aircraft A20N/M-SDE2E3FGHIRWXY/LB1

Departure

Time 2026-05-04 15:18
Airport John Wayne Orange County International Airport (KSNA)

Arrival

Time 2026-05-04 15:57
Airport Harry Reid International Airport (KLAS)
Time Latitude Longitude Altitude Speed Heading
2026-05-04 14:52 33.67684 -117.86397 58 ft 0 kts 118°
2026-05-04 15:06 33.67690 -117.86411 48 ft 4 kts 112°
2026-05-04 15:06 33.67697 -117.86441 52 ft 4 kts 89°
2026-05-04 15:06 33.67691 -117.86469 51 ft 4 kts 43°
2026-05-04 15:07 33.67681 -117.86478 53 ft 0 kts 27°
2026-05-04 15:14 33.67682 -117.86477 58 ft 2 kts 25°
2026-05-04 15:15 33.67714 -117.86457 56 ft 12 kts 28°
2026-05-04 15:15 33.67818 -117.86389 56 ft 19 kts 28°
2026-05-04 15:15 33.67931 -117.86328 52 ft 16 kts 22°
2026-05-04 15:16 33.68080 -117.86332 58 ft 11 kts 295°
2026-05-04 15:16 33.68114 -117.86416 58 ft 11 kts 296°
2026-05-04 15:16 33.68134 -117.86535 55 ft 4 kts 204°
2026-05-04 15:17 33.68126 -117.86539 54 ft 12 kts 204°
2026-05-04 15:17 33.67116 -117.87172 62 ft 144 kts 207°
2026-05-04 15:17 33.66150 -117.87775 432 ft 160 kts 208°
2026-05-04 15:18 33.65122 -117.88432 1095 ft 169 kts 210°
2026-05-04 15:18 33.64143 -117.89065 1480 ft 154 kts 211°
2026-05-04 15:18 33.63214 -117.89647 1738 ft 152 kts 210°
2026-05-04 15:19 33.60881 -117.90385 2909 ft 191 kts 185°
2026-05-04 15:19 33.59539 -117.90441 3602 ft 202 kts 185°
2026-05-04 15:19 33.56532 -117.91008 4476 ft 246 kts 214°
2026-05-04 15:20 33.55140 -117.92287 5189 ft 257 kts 223°
2026-05-04 15:20 33.53805 -117.93729 6119 ft 260 kts 225°
2026-05-04 15:20 33.52475 -117.95217 7009 ft 264 kts 225°
2026-05-04 15:20 33.51150 -117.96758 7652 ft 266 kts 229°
2026-05-04 15:21 33.50186 -117.98594 8671 ft 251 kts 251°
2026-05-04 15:21 33.49918 -118.00435 10605 ft 197 kts 269°
2026-05-04 15:21 33.51115 -118.02877 12512 ft 194 kts 303°
2026-05-04 15:22 33.51955 -118.04235 12805 ft 210 kts 296°
2026-05-04 15:22 33.52755 -118.05619 13739 ft 205 kts 296°
2026-05-04 15:22 33.54707 -118.08585 14502 ft 246 kts 302°
2026-05-04 15:23 33.55946 -118.10158 14836 ft 274 kts 310°
2026-05-04 15:23 33.57642 -118.11425 15139 ft 312 kts 330°
2026-05-04 15:23 33.59906 -118.11888 15459 ft 353 kts 356°
2026-05-04 15:23 33.62403 -118.11152 15786 ft 387 kts 18°
2026-05-04 15:24 33.67445 -118.08184 16844 ft 415 kts 22°
2026-05-04 15:24 33.72702 -118.05016 18198 ft 429 kts 21°
2026-05-04 15:25 33.75400 -118.03420 18792 ft 435 kts 21°
2026-05-04 15:25 33.78147 -118.01805 19341 ft 442 kts 21°
2026-05-04 15:25 33.80923 -118.00178 19887 ft 448 kts 20°
2026-05-04 15:26 33.86607 -117.96850 21012 ft 460 kts 20°
2026-05-04 15:26 33.89495 -117.95137 21548 ft 467 kts 23°
2026-05-04 15:26 33.94953 -117.90614 22570 ft 483 kts 33°
2026-05-04 15:27 33.97636 -117.88146 23035 ft 488 kts 34°
2026-05-04 15:27 34.03036 -117.83170 23917 ft 497 kts 33°
2026-05-04 15:28 34.08539 -117.77941 24698 ft 509 kts 41°
2026-05-04 15:28 34.10960 -117.74802 25078 ft 515 kts 49°
2026-05-04 15:28 34.15529 -117.68056 25800 ft 523 kts 50°
2026-05-04 15:29 34.17829 -117.64617 26182 ft 527 kts 50°
2026-05-04 15:30 34.27237 -117.50584 27022 ft 554 kts 50°
2026-05-04 15:30 34.34669 -117.39484 26998 ft 583 kts 51°
2026-05-04 15:31 34.39843 -117.31736 27001 ft 600 kts 51°
2026-05-04 15:31 34.42436 -117.27845 27865 ft 586 kts 51°
2026-05-04 15:32 34.50042 -117.16412 28982 ft 588 kts 51°
2026-05-04 15:32 34.55257 -117.08566 29368 ft 590 kts 50°
2026-05-04 15:33 34.60332 -117.01139 31374 ft 559 kts 49°
2026-05-04 15:34 34.67758 -116.90375 30964 ft 568 kts 49°
2026-05-04 15:34 34.75450 -116.79131 30953 ft 582 kts 49°
2026-05-04 15:35 34.83199 -116.67755 30951 ft 582 kts 49°
2026-05-04 15:36 34.92140 -116.57902 30941 ft 577 kts 34°
2026-05-04 15:36 34.98452 -116.51830 30928 ft 577 kts 34°
2026-05-04 15:37 35.04738 -116.45744 30918 ft 577 kts 34°
2026-05-04 15:37 35.10868 -116.39508 30909 ft 579 kts 41°
2026-05-04 15:38 35.16460 -116.32428 30914 ft 580 kts 45°
2026-05-04 15:38 35.21982 -116.25238 30908 ft 579 kts 45°
2026-05-04 15:39 35.27379 -116.17921 30916 ft 579 kts 46°
2026-05-04 15:40 35.35422 -116.06852 30921 ft 579 kts 46°
2026-05-04 15:40 35.40777 -115.99480 30920 ft 579 kts 46°
2026-05-04 15:41 35.46139 -115.92087 30923 ft 579 kts 46°
2026-05-04 15:41 35.51488 -115.84697 30923 ft 579 kts 46°
2026-05-04 15:41 35.54159 -115.81001 30719 ft 578 kts 46°
2026-05-04 15:42 35.56821 -115.77314 30114 ft 574 kts 46°
2026-05-04 15:42 35.59456 -115.73670 29471 ft 565 kts 46°
2026-05-04 15:42 35.62034 -115.70171 28757 ft 554 kts 45°
2026-05-04 15:42 35.64636 -115.66661 28006 ft 543 kts 45°
2026-05-04 15:43 35.67155 -115.63261 27313 ft 532 kts 45°
2026-05-04 15:43 35.69585 -115.59978 26617 ft 522 kts 45°
2026-05-04 15:43 35.71998 -115.56690 25899 ft 512 kts 45°
2026-05-04 15:43 35.74636 -115.53856 25211 ft 495 kts 28°
2026-05-04 15:44 35.77585 -115.51785 24585 ft 481 kts 22°
2026-05-04 15:44 35.80516 -115.49889 23924 ft 472 kts 23°
2026-05-04 15:44 35.83391 -115.47998 23237 ft 463 kts 24°
2026-05-04 15:44 35.86195 -115.46109 22394 ft 456 kts 25°
2026-05-04 15:45 35.88948 -115.44222 21561 ft 450 kts 25°
2026-05-04 15:45 35.91658 -115.42349 20758 ft 443 kts 25°
2026-05-04 15:45 35.94332 -115.40496 19963 ft 437 kts 26°
2026-05-04 15:45 35.96956 -115.38673 19224 ft 429 kts 26°
2026-05-04 15:46 35.99500 -115.36824 18627 ft 422 kts 34°
2026-05-04 15:46 36.01523 -115.34262 17997 ft 415 kts 57°
2026-05-04 15:46 36.02670 -115.31076 17328 ft 401 kts 80°
2026-05-04 15:46 36.02813 -115.27722 16665 ft 383 kts 103°
2026-05-04 15:47 36.02222 -115.24578 16028 ft 370 kts 109°
2026-05-04 15:47 36.01626 -115.21521 15428 ft 364 kts 105°
2026-05-04 15:47 36.01178 -115.18464 14797 ft 357 kts 102°
2026-05-04 15:47 36.00855 -115.15455 14201 ft 350 kts 99°
2026-05-04 15:48 36.00609 -115.12491 13591 ft 344 kts 98°
2026-05-04 15:48 36.00411 -115.09610 12983 ft 336 kts 97°
2026-05-04 15:48 36.00091 -115.04124 12427 ft 304 kts 97°
2026-05-04 15:49 35.99973 -115.01575 12146 ft 292 kts 95°
2026-05-04 15:49 35.99990 -114.99111 11868 ft 281 kts 91°
2026-05-04 15:49 36.00095 -114.96756 11595 ft 270 kts 90°
2026-05-04 15:49 36.00217 -114.94482 11332 ft 262 kts 90°
2026-05-04 15:50 36.00341 -114.92205 11106 ft 268 kts 90°
2026-05-04 15:50 36.00467 -114.89882 10700 ft 273 kts 90°
2026-05-04 15:50 36.00594 -114.87519 10230 ft 278 kts 90°
2026-05-04 15:50 36.00740 -114.85149 9768 ft 282 kts 87°
2026-05-04 15:51 36.01162 -114.82729 9036 ft 297 kts 73°
2026-05-04 15:51 36.02133 -114.80416 8324 ft 310 kts 56°
2026-05-04 15:51 36.03749 -114.78657 7930 ft 311 kts 29°
2026-05-04 15:51 36.05800 -114.78013 7659 ft 304 kts 356°
2026-05-04 15:52 36.07746 -114.78836 7172 ft 293 kts 319°
2026-05-04 15:52 36.08819 -114.80787 6954 ft 264 kts 279°
2026-05-04 15:52 36.08780 -114.82952 6521 ft 249 kts 251°
2026-05-04 15:52 36.08194 -114.84930 6158 ft 241 kts 242°
2026-05-04 15:53 36.07544 -114.86815 6023 ft 237 kts 245°
2026-05-04 15:53 36.07089 -114.88756 6060 ft 242 kts 258°
2026-05-04 15:53 36.07183 -114.90803 5977 ft 236 kts 276°
2026-05-04 15:53 36.07456 -114.92772 5680 ft 230 kts 271°
2026-05-04 15:54 36.07499 -114.94742 5284 ft 229 kts 264°
2026-05-04 15:54 36.07454 -114.96701 4859 ft 227 kts 265°
2026-05-04 15:54 36.07420 -114.98628 4513 ft 220 kts 266°
2026-05-04 15:54 36.07399 -115.00492 4010 ft 215 kts 266°
2026-05-04 15:55 36.07388 -115.02331 3442 ft 211 kts 268°
2026-05-04 15:55 36.07394 -115.04082 3151 ft 189 kts 267°
2026-05-04 15:55 36.07376 -115.05577 3029 ft 163 kts 265°
2026-05-04 15:55 36.07370 -115.06933 2864 ft 155 kts 268°
2026-05-04 15:56 36.07382 -115.08232 2657 ft 147 kts 265°
2026-05-04 15:56 36.07391 -115.09481 2556 ft 146 kts 263°
2026-05-04 15:56 36.07390 -115.10715 2479 ft 141 kts 262°
2026-05-04 15:56 36.07374 -115.11916 2320 ft 142 kts 263°
2026-05-04 15:57 36.07372 -115.13128 2201 ft 139 kts 262°
2026-05-04 15:57 36.07365 -115.14189 2193 ft 107 kts 264°
2026-05-04 15:57 36.07359 -115.14966 2191 ft 60 kts 269°
2026-05-04 15:57 36.07404 -115.15332 2192 ft 28 kts 293°
2026-05-04 15:58 36.07491 -115.15542 2192 ft 27 kts 300°
2026-05-04 15:58 36.07604 -115.15708 2192 ft 24 kts 314°
2026-05-04 15:58 36.07750 -115.15820 2193 ft 25 kts 357°
2026-05-04 15:58 36.07920 -115.15817 2192 ft 24 kts
2026-05-04 15:59 36.08082 -115.15817 2191 ft 23 kts 359°
2026-05-04 15:59 36.08154 -115.15746 2192 ft 13 kts 75°
2026-05-04 15:59 36.08161 -115.15637 2194 ft 12 kts 91°
2026-05-04 15:59 36.08160 -115.15569 2193 ft 12 kts 92°
2026-05-04 16:00 36.08164 -115.15471 2192 ft 11 kts 75°
2026-05-04 16:00 36.08216 -115.15417 2194 ft 10 kts 23°
2026-05-04 16:00 36.08246 -115.15377 2193 ft 4 kts 64°
2026-05-04 16:00 36.08252 -115.15361 2192 ft 2 kts 68°
2026-05-04 16:01 36.08255 -115.15351 2191 ft 0 kts 66°